ZPTAI SAZO-SAZV

Flight info

Callsign ZPTAI
Flight time N/A
Altitude FL055
Route 3833S05844W 3816S05751W 3760S05734W 3750S05730W 3744S05727W
Aircraft C152/L-S/N

Departure

Time 2026-04-12 13:36
Airport Necochea Airport (SAZO)

Arrival

Time N/A
Airport Villa Gesell Airport (SAZV)
Time Latitude Longitude Altitude Speed Heading
2026-04-12 13:27 -38.47785 -58.81305 76 ft 0 kts 227°
2026-04-12 13:31 -38.47796 -58.81299 76 ft 1 kts 137°
2026-04-12 13:31 -38.47809 -58.81289 76 ft 4 kts 159°
2026-04-12 13:31 -38.47840 -58.81271 76 ft 7 kts 156°
2026-04-12 13:32 -38.47919 -58.81320 76 ft 18 kts 219°
2026-04-12 13:32 -38.47961 -58.81349 76 ft 6 kts 197°
2026-04-12 13:32 -38.48039 -58.81352 76 ft 11 kts 167°
2026-04-12 13:32 -38.48099 -58.81423 76 ft 19 kts 265°
2026-04-12 13:33 -38.48099 -58.81570 76 ft 14 kts 271°
2026-04-12 13:33 -38.48099 -58.81588 76 ft 0 kts 269°
2026-04-12 13:33 -38.48095 -58.81632 76 ft 13 kts 290°
2026-04-12 13:33 -38.48019 -58.81671 76 ft 17 kts 356°
2026-04-12 13:34 -38.47874 -58.81678 76 ft 22 kts
2026-04-12 13:34 -38.47747 -58.81688 76 ft 11 kts 354°
2026-04-12 13:34 -38.47732 -58.81682 76 ft 2 kts 164°
2026-04-12 13:34 -38.47736 -58.81681 76 ft 8 kts 176°
2026-04-12 13:35 -38.47956 -58.81678 76 ft 52 kts 178°
2026-04-12 13:35 -38.48407 -58.81659 128 ft 69 kts 181°
2026-04-12 13:35 -38.48864 -58.81644 271 ft 65 kts 180°
2026-04-12 13:35 -38.49315 -58.81594 384 ft 67 kts 172°
2026-04-12 13:36 -38.49782 -58.81448 471 ft 71 kts 166°
2026-04-12 13:36 -38.50158 -58.81011 535 ft 83 kts 97°
2026-04-12 13:36 -38.50150 -58.80541 646 ft 79 kts 85°
2026-04-12 13:36 -38.50376 -58.79638 802 ft 82 kts 107°
2026-04-12 13:37 -38.50577 -58.78930 883 ft 88 kts 110°
2026-04-12 13:37 -38.50820 -58.78196 951 ft 93 kts 118°
2026-04-12 13:37 -38.51195 -58.77517 1011 ft 95 kts 131°
2026-04-12 13:37 -38.51647 -58.76891 1061 ft 97 kts 135°
2026-04-12 13:38 -38.52128 -58.76280 1102 ft 99 kts 137°
2026-04-12 13:38 -38.52624 -58.75668 1139 ft 100 kts 137°
2026-04-12 13:38 -38.53128 -58.75052 1171 ft 101 kts 137°
2026-04-12 13:38 -38.53634 -58.74434 1201 ft 101 kts 137°
2026-04-12 13:39 -38.54143 -58.73813 1229 ft 102 kts 137°
2026-04-12 13:39 -38.54640 -58.73170 1254 ft 102 kts 127°
2026-04-12 13:39 -38.54657 -58.72333 1295 ft 95 kts 55°
2026-04-12 13:39 -38.54313 -58.71649 1396 ft 92 kts 59°
2026-04-12 13:40 -38.54044 -58.70908 1456 ft 93 kts 62°
2026-04-12 13:40 -38.53790 -58.70141 1498 ft 95 kts 63°
2026-04-12 13:40 -38.53540 -58.69357 1535 ft 96 kts 63°
2026-04-12 13:40 -38.53291 -58.68562 1569 ft 97 kts 64°
2026-04-12 13:41 -38.53041 -58.67764 1599 ft 97 kts 64°
2026-04-12 13:41 -38.52790 -58.66960 1627 ft 98 kts 64°
2026-04-12 13:41 -38.52539 -58.66155 1654 ft 98 kts 64°
2026-04-12 13:41 -38.52288 -58.65351 1680 ft 98 kts 64°
2026-04-12 13:42 -38.52037 -58.64547 1706 ft 98 kts 64°
2026-04-12 13:42 -38.51786 -58.63743 1731 ft 98 kts 64°
2026-04-12 13:42 -38.51535 -58.62941 1756 ft 98 kts 63°
2026-04-12 13:43 -38.51033 -58.61335 1807 ft 97 kts 63°
2026-04-12 13:43 -38.50783 -58.60535 1832 ft 97 kts 63°
2026-04-12 13:43 -38.50532 -58.59734 1857 ft 97 kts 63°
2026-04-12 13:43 -38.50283 -58.58936 1882 ft 97 kts 63°
2026-04-12 13:44 -38.50034 -58.58141 1907 ft 97 kts 63°
2026-04-12 13:44 -38.49785 -58.57345 1931 ft 97 kts 63°
2026-04-12 13:44 -38.49535 -58.56549 1955 ft 97 kts 63°
2026-04-12 13:44 -38.49287 -58.55756 1980 ft 97 kts 63°
2026-04-12 13:45 -38.49038 -58.54963 2005 ft 96 kts 63°
2026-04-12 13:45 -38.48789 -58.54169 2030 ft 96 kts 63°
2026-04-12 13:45 -38.48542 -58.53380 2055 ft 96 kts 63°
2026-04-12 13:45 -38.48294 -58.52589 2081 ft 96 kts 63°
2026-04-12 13:46 -38.48046 -58.51800 2107 ft 96 kts 63°
2026-04-12 13:46 -38.47799 -58.51012 2132 ft 96 kts 63°
2026-04-12 13:46 -38.47552 -58.50227 2157 ft 96 kts 63°
2026-04-12 13:46 -38.47305 -58.49440 2182 ft 96 kts 63°
2026-04-12 13:47 -38.47059 -58.48655 2207 ft 95 kts 63°
2026-04-12 13:47 -38.46812 -58.47871 2232 ft 95 kts 63°
2026-04-12 13:47 -38.46566 -58.47088 2257 ft 95 kts 63°
2026-04-12 13:47 -38.46320 -58.46306 2282 ft 95 kts 63°
2026-04-12 13:48 -38.46075 -58.45526 2308 ft 95 kts 63°
2026-04-12 13:49 -38.45129 -58.42519 2407 ft 95 kts 63°
2026-04-12 13:49 -38.44883 -58.41737 2434 ft 95 kts 63°
2026-04-12 13:49 -38.44639 -58.40963 2461 ft 95 kts 63°
2026-04-12 13:49 -38.44393 -58.40183 2486 ft 95 kts 63°
2026-04-12 13:50 -38.44148 -58.39406 2513 ft 95 kts 63°
2026-04-12 13:50 -38.43903 -58.38627 2540 ft 95 kts 63°
2026-04-12 13:50 -38.43656 -58.37845 2566 ft 95 kts 63°
2026-04-12 13:50 -38.43411 -58.37068 2591 ft 95 kts 63°
2026-04-12 13:51 -38.43165 -58.36289 2616 ft 95 kts 63°
2026-04-12 13:51 -38.42919 -58.35510 2641 ft 95 kts 63°
2026-04-12 13:51 -38.42673 -58.34730 2666 ft 95 kts 63°
2026-04-12 13:51 -38.42427 -58.33949 2691 ft 95 kts 63°
2026-04-12 13:52 -38.42182 -58.33175 2716 ft 95 kts 63°
2026-04-12 13:52 -38.41937 -58.32399 2741 ft 95 kts 63°
2026-04-12 13:52 -38.41691 -58.31620 2766 ft 94 kts 63°
2026-04-12 13:52 -38.41447 -58.30848 2790 ft 94 kts 63°
2026-04-12 13:53 -38.41202 -58.30075 2814 ft 94 kts 63°
2026-04-12 13:53 -38.40957 -58.29299 2839 ft 94 kts 63°
2026-04-12 13:53 -38.40713 -58.28527 2864 ft 94 kts 63°
2026-04-12 13:53 -38.40470 -58.27761 2889 ft 94 kts 63°
2026-04-12 13:54 -38.40226 -58.26988 2915 ft 94 kts 63°
2026-04-12 13:54 -38.39982 -58.26218 2941 ft 94 kts 63°
2026-04-12 13:54 -38.39738 -58.25449 2968 ft 94 kts 63°
2026-04-12 13:54 -38.39496 -58.24683 2993 ft 94 kts 63°
2026-04-12 13:55 -38.39251 -58.23910 3017 ft 94 kts 63°
2026-04-12 13:55 -38.39008 -58.23144 3041 ft 94 kts 63°
2026-04-12 13:55 -38.38765 -58.22376 3067 ft 93 kts 63°
2026-04-12 13:55 -38.38523 -58.21615 3092 ft 93 kts 63°
2026-04-12 13:56 -38.38279 -58.20847 3118 ft 93 kts 63°
2026-04-12 13:56 -38.38038 -58.20087 3144 ft 93 kts 63°
2026-04-12 13:56 -38.37797 -58.19325 3168 ft 93 kts 63°
2026-04-12 13:56 -38.37554 -58.18561 3193 ft 93 kts 63°
2026-04-12 13:57 -38.37312 -58.17801 3217 ft 93 kts 63°
2026-04-12 13:57 -38.37071 -58.17042 3243 ft 93 kts 63°
2026-04-12 13:57 -38.36830 -58.16282 3268 ft 93 kts 63°
2026-04-12 13:57 -38.36589 -58.15523 3294 ft 93 kts 63°
2026-04-12 13:58 -38.36348 -58.14766 3320 ft 92 kts 63°
2026-04-12 13:58 -38.36107 -58.14009 3345 ft 92 kts 63°
2026-04-12 13:58 -38.35867 -58.13253 3370 ft 92 kts 63°
2026-04-12 13:58 -38.35626 -58.12497 3395 ft 92 kts 63°
2026-04-12 13:59 -38.35387 -58.11746 3420 ft 92 kts 63°
2026-04-12 13:59 -38.35146 -58.10987 3446 ft 92 kts 63°
2026-04-12 13:59 -38.34906 -58.10234 3472 ft 92 kts 63°
2026-04-12 13:59 -38.34666 -58.09480 3498 ft 92 kts 64°
2026-04-12 14:00 -38.34425 -58.08725 3523 ft 92 kts 64°
2026-04-12 14:00 -38.34185 -58.07972 3549 ft 92 kts 64°
2026-04-12 14:00 -38.33945 -58.07218 3574 ft 92 kts 64°
2026-04-12 14:00 -38.33705 -58.06466 3599 ft 92 kts 64°
2026-04-12 14:01 -38.33466 -58.05715 3624 ft 92 kts 64°
2026-04-12 14:01 -38.33226 -58.04963 3649 ft 92 kts 64°
2026-04-12 14:01 -38.32986 -58.04213 3674 ft 92 kts 64°
2026-04-12 14:01 -38.32748 -58.03465 3699 ft 91 kts 64°
2026-04-12 14:02 -38.32509 -58.02718 3723 ft 91 kts 64°
2026-04-12 14:02 -38.32271 -58.01971 3748 ft 91 kts 64°
2026-04-12 14:02 -38.32033 -58.01227 3772 ft 91 kts 64°
2026-04-12 14:02 -38.31795 -58.00482 3797 ft 91 kts 64°
2026-04-12 14:03 -38.31557 -57.99738 3822 ft 91 kts 64°
2026-04-12 14:03 -38.31320 -57.98995 3847 ft 91 kts 64°
2026-04-12 14:03 -38.31083 -57.98254 3873 ft 91 kts 64°
2026-04-12 14:03 -38.30846 -57.97513 3898 ft 91 kts 64°
2026-04-12 14:04 -38.30609 -57.96774 3924 ft 90 kts 64°
2026-04-12 14:04 -38.30372 -57.96034 3949 ft 90 kts 64°
2026-04-12 14:04 -38.30136 -57.95296 3975 ft 90 kts 64°
2026-04-12 14:04 -38.29900 -57.94558 4001 ft 90 kts 64°
2026-04-12 14:05 -38.29664 -57.93822 4027 ft 90 kts 64°
2026-04-12 14:05 -38.29429 -57.93086 4053 ft 90 kts 64°
2026-04-12 14:05 -38.28958 -57.91617 4104 ft 90 kts 64°
2026-04-12 14:06 -38.28722 -57.90882 4130 ft 90 kts 64°
2026-04-12 14:06 -38.28487 -57.90147 4156 ft 90 kts 64°
2026-04-12 14:06 -38.28252 -57.89415 4181 ft 90 kts 64°
2026-04-12 14:06 -38.28016 -57.88681 4207 ft 90 kts 64°
2026-04-12 14:07 -38.27782 -57.87950 4232 ft 90 kts 65°
2026-04-12 14:07 -38.27547 -57.87217 4258 ft 89 kts 65°
2026-04-12 14:07 -38.27313 -57.86487 4283 ft 89 kts 65°
2026-04-12 14:07 -38.27079 -57.85756 4309 ft 89 kts 65°
2026-04-12 14:08 -38.26845 -57.85024 4334 ft 89 kts 65°
2026-04-12 14:08 -38.26583 -57.84315 4356 ft 88 kts 48°
2026-04-12 14:08 -38.26111 -57.83859 4412 ft 84 kts 38°
2026-04-12 14:08 -38.25671 -57.83376 4460 ft 84 kts 37°
2026-04-12 14:09 -38.25218 -57.82903 4493 ft 85 kts 37°
2026-04-12 14:09 -38.24758 -57.82430 4524 ft 85 kts 36°
2026-04-12 14:09 -38.24295 -57.81957 4554 ft 86 kts 36°
2026-04-12 14:09 -38.23828 -57.81482 4582 ft 86 kts 36°
2026-04-12 14:10 -38.23360 -57.81006 4609 ft 86 kts 36°
2026-04-12 14:10 -38.22891 -57.80530 4636 ft 87 kts 36°
2026-04-12 14:10 -38.22420 -57.80053 4661 ft 87 kts 36°
2026-04-12 14:10 -38.21949 -57.79574 4687 ft 87 kts 37°
2026-04-12 14:11 -38.21477 -57.79095 4712 ft 87 kts 37°
2026-04-12 14:11 -38.21005 -57.78617 4737 ft 87 kts 37°
2026-04-12 14:11 -38.20533 -57.78138 4762 ft 87 kts 37°
2026-04-12 14:11 -38.20061 -57.77659 4787 ft 87 kts 37°
2026-04-12 14:12 -38.19588 -57.77180 4812 ft 87 kts 37°
2026-04-12 14:12 -38.19116 -57.76702 4836 ft 87 kts 37°
2026-04-12 14:12 -38.18644 -57.76223 4861 ft 87 kts 37°
2026-04-12 14:12 -38.18171 -57.75744 4885 ft 87 kts 37°
2026-04-12 14:13 -38.17699 -57.75266 4910 ft 87 kts 37°
2026-04-12 14:13 -38.17227 -57.74788 4934 ft 87 kts 37°
2026-04-12 14:13 -38.16753 -57.74309 4959 ft 87 kts 37°
2026-04-12 14:13 -38.16281 -57.73831 4983 ft 87 kts 37°
2026-04-12 14:14 -38.15808 -57.73352 5008 ft 87 kts 37°
2026-04-12 14:14 -38.15336 -57.72874 5033 ft 87 kts 37°
2026-04-12 14:14 -38.14865 -57.72398 5058 ft 87 kts 37°
2026-04-12 14:14 -38.14394 -57.71921 5083 ft 87 kts 37°
2026-04-12 14:15 -38.13924 -57.71445 5108 ft 87 kts 37°
2026-04-12 14:15 -38.13454 -57.70970 5134 ft 87 kts 37°
2026-04-12 14:15 -38.12983 -57.70494 5159 ft 86 kts 37°
2026-04-12 14:15 -38.12514 -57.70020 5185 ft 86 kts 37°
2026-04-12 14:16 -38.12046 -57.69546 5210 ft 86 kts 37°
2026-04-12 14:16 -38.11578 -57.69073 5235 ft 86 kts 37°
2026-04-12 14:16 -38.11110 -57.68601 5261 ft 86 kts 37°
2026-04-12 14:16 -38.10644 -57.68130 5286 ft 86 kts 37°
2026-04-12 14:17 -38.10488 -57.67972 5295 ft 86 kts 37°